Tracking 25709 objects as of 24-May-2022
HD Live streaming from Space Station
objects crossing your sky now

DELTA 2 DEB


DELTA 2 DEB is no longer on orbit


NORAD ID: 35428
Int'l Code: 2004-045D
Perigee: N/A
Apogee: N/A
Inclination: N/A
Period: N/A
Semi major axis: N/A
RCS: N/A
Launch date: November 6, 2004
Source: United States (US)
Launch site: AIR FORCE EASTERN TEST RANGE (AFETR)
Decay date: 2014-09-09

Note: This is SATELLITE DEBRIS
aabbcc
Your satellite tracking list
Your tracking list is empty




NASA's NSSDC Master Catalog

Two Line Element Set (TLE):
1 35428U 04045D   22144.14962440  .00515912  28131-5  35214-3 0  9999
2 35428  38.8831  95.7813 0931114 311.5575  40.8872 14.18673581428528
Source of the keplerian elements: AFSPC